Miles City, MT

4:29 AM MST on December 14, 2017 (GMT -0700)
Wiley

Weather History for KMLS - January, 2013

Change the Weather History Date:

Sunday, January 20, 2013

  Actual Average Record
Temperature  
Mean Temperature 11 °F 20 °F  
Max Temperature 20 °F 30 °F 56 °F (1992)
Min Temperature 2 °F 9 °F -36 °F (1954)
Degree Days  
Heating Degree Days 54 45  
Month to date heating degree days 868 919  
Since 1 July heating degree days 3778 4103  
Cooling Degree Days 0 0  
Month to date cooling degree days 0 0  
Year to date cooling degree days 0 0  
Moisture  
Dew Point 4 °F    
Average Humidity 73    
Maximum Humidity 84    
Minimum Humidity 61    
Precipitation  
Precipitation T in 0.01 in 0.26 in (1957)
Month to date precipitation 0.06 0.23  
Year to date precipitation 0.06 0.23  
Sea Level Pressure  
Sea Level Pressure 30.52 in    
Wind  
Wind Speed 10 mph (NNW)    
Max Wind Speed 22 mph    
Max Gust Speed 25 mph    
Visibility 10 miles    
Events Snow    
T = Trace of Precipitation, MM = Missing Value Source: NWS Daily Summary

Daily Weather History Graph

Daily Weather History Graph

Search for Another Location

Airport or City:

Trip Planner

Search our weather history database for the weather conditions in past years. The results will help you decide how hot, cold, wet, or windy it might be!

Date:

Astronomy

Jan. 20, 2013 Rise Set
Actual Time 7:39 AM MST 4:50 PM MST
Civil Twilight 7:05 AM MST 5:24 PM MST
Nautical Twilight 6:28 AM MST 6:01 PM MST
Astronomical Twilight 5:53 AM MST 6:36 PM MST
Moon 11:54 AM MST (1/20) 2:12 AM MST (1/20)
Length of Visible Light 10h 18m
Length of Day
9h 11m
Waxing Gibbous, 67% of the Moon is Illuminated
Jan 20
Waxing Gibbous
Jan 26
Full
Feb 3
Last Quarter
Feb 10
New
Feb 17
First Quarter

Hourly Weather History & Observations

Time (MST) Temp. Windchill Dew Point Humidity Pressure Visibility Wind Dir Wind Speed Gust Speed Precip Events Conditions
12:53 AM 18.0 °F 4.2 °F 14.0 °F 84% 30.25 in 10.0 mi NNE 13.8 mph - N/A   Mostly Cloudy
1:53 AM 17.1 °F 4.3 °F 12.9 °F 84% 30.29 in 10.0 mi NE 11.5 mph - N/A   Clear
2:49 AM 17.6 °F 3.7 °F 14.0 °F 86% 30.26 in 10.0 mi NNE 13.8 mph - N/A   Overcast
2:53 AM 18.0 °F 4.2 °F 14.0 °F 84% 30.38 in 10.0 mi NNE 13.8 mph - N/A   Overcast
3:16 AM 19.4 °F 6.6 °F 14.0 °F 80% 30.29 in 10.0 mi North 12.7 mph - N/A   Overcast
3:53 AM 19.0 °F 8.2 °F 14.0 °F 81% 30.43 in 10.0 mi NNE 9.2 mph - N/A   Overcast
4:53 AM 19.0 °F 12.3 °F 12.9 °F 77% 30.48 in 10.0 mi NNW 4.6 mph - 0.00 in   Overcast
5:53 AM 18.0 °F 3.6 °F 12.0 °F 78% 30.53 in 10.0 mi NNW 15.0 mph - N/A   Overcast
6:53 AM 17.1 °F 3.6 °F 10.9 °F 77% 30.56 in 9.0 mi NNW 12.7 mph - 0.00 in   Mostly Cloudy
7:53 AM 15.1 °F -0.6 °F 8.1 °F 74% 30.58 in 10.0 mi North 16.1 mph - 0.00 in   Mostly Cloudy
8:53 AM 14.0 °F -0.8 °F 7.0 °F 74% 30.61 in 10.0 mi North 13.8 mph - N/A   Overcast
9:53 AM 12.9 °F -3.4 °F 3.9 °F 67% 30.64 in 10.0 mi North 16.1 mph - 0.00 in   Overcast
10:53 AM 12.9 °F -1.6 °F 5.0 °F 71% 30.66 in 5.0 mi NNW 12.7 mph - 0.00 in Snow Light Snow
11:53 AM 12.0 °F -2.7 °F 1.9 °F 64% 30.64 in 9.0 mi NW 12.7 mph - 0.00 in Snow Light Snow
12:50 PM 12.2 °F -1.8 °F 3.2 °F 67% 30.47 in 10.0 mi NNW 11.5 mph - 0.00 in   Overcast
12:53 PM 12.0 °F -0.4 °F 3.0 °F 67% 30.61 in 10.0 mi NNW 9.2 mph - 0.00 in   Overcast
1:01 PM 12.2 °F -1.0 °F 3.2 °F 67% 30.47 in 10.0 mi NNW 10.4 mph - N/A   Overcast
1:49 PM 12.2 °F -1.8 °F 3.2 °F 67% 30.45 in 8.0 mi NNW 11.5 mph - 0.00 in Snow Light Snow
1:53 PM 12.0 °F -0.4 °F 3.0 °F 67% 30.59 in 7.0 mi NNW 9.2 mph - 0.00 in Snow Light Snow
2:39 PM 10.4 °F 2.2 °F 1.4 °F 67% 30.45 in 10.0 mi NW 4.6 mph - 0.00 in   Overcast
2:53 PM 12.0 °F 0.5 °F 1.9 °F 64% 30.59 in 10.0 mi NNW 8.1 mph - 0.00 in   Mostly Cloudy
3:24 PM 10.4 °F -4.1 °F 1.4 °F 67% 30.45 in 10.0 mi NW 11.5 mph - N/A   Mostly Cloudy
3:33 PM 10.4 °F -1.5 °F 1.4 °F 67% 30.46 in 10.0 mi NNW 8.1 mph - N/A   Mostly Cloudy
3:53 PM 9.0 °F -5.1 °F -0.0 °F 67% 30.60 in 10.0 mi NNW 10.4 mph - N/A   Overcast
4:53 PM 7.0 °F -6.6 °F -0.9 °F 70% 30.60 in 10.0 mi North 9.2 mph - N/A   Overcast
5:53 PM 5.0 °F -10.8 °F -2.9 °F 70% 30.61 in 10.0 mi NNW 11.5 mph - N/A   Overcast
6:53 PM 3.0 °F -13.3 °F -5.1 °F 69% 30.62 in 10.0 mi NNW 11.5 mph - N/A   Overcast
7:53 PM 3.0 °F -11.5 °F -7.1 °F 63% 30.61 in 10.0 mi NNW 9.2 mph - N/A   Overcast
8:53 PM 1.9 °F -11.8 °F -7.1 °F 66% 30.61 in 10.0 mi NW 8.1 mph - N/A   Overcast
9:53 PM 1.9 °F -9.2 °F -8.0 °F 63% 30.60 in 10.0 mi NW 5.8 mph - N/A   Overcast
10:53 PM 1.9 °F -7.6 °F -8.0 °F 63% 30.59 in 10.0 mi NNW 4.6 mph - N/A   Overcast
11:53 PM 3.0 °F - -8.0 °F 60% 30.56 in 10.0 mi Calm Calm - N/A   Overcast